1516770000.57,7363,4.13,73652.8,-9.09,-30.73,-30.45,0,*64
1516770001.83,7364,4.13,73656.0,-9.11,-30.67,-30.51,0,*6A
1516770003.07,7365,4.13,73654.8,-9.09,-30.73,-30.45,0,*62
1516770004.31,7366,4.13,73654.8,-9.09,-30.83,-30.73,0,*6B
1516770005.58,7367,4.13,73658.0,-9.09,-30.77,-30.55,0,*65
1516770006.83,7368,4.13,73656.5,-9.09,-30.61,-30.55,0,*6D
1516770008.04,7369,4.13,73658.5,-9.09,-30.45,-30.23,0,*6B
1516770009.27,7370,4.13,73658.5,-9.07,-30.27,-30.11,0,*68
1516770010.52,7371,4.13,73654.8,-9.07,-30.23,-30.05,0,*68
1516770011.74,7372,4.13,73654.8,-9.07,-30.45,-30.27,0,*6B
1516770012.99,7373,4.13,73654.8,-9.05,-30.39,-30.17,0,*60
1516770014.22,7374,4.13,73654.3,-9.05,-30.55,-30.33,0,*6B
1516770015.48,7375,4.13,73656.5,-9.03,-30.67,-30.51,0,*69
1516770016.76,7376,4.13,73658.3,-9.03,-30.39,-30.39,0,*6F
1516770018.01,7377,4.13,73656.5,-9.03,-30.39,-30.33,0,*64
1516770019.25,7378,4.13,73652.8,-8.97,-29.83,-29.51,0,*62
1516770020.51,7379,4.13,73654.5,-8.99,-29.83,-29.51,0,*6D
1516770021.71,7380,4.13,73658.3,-8.97,-29.95,-29.61,0,*61
1516770022.92,7381,4.13,73656.3,-8.97,-30.11,-29.83,0,*68
1516770024.13,7382,4.13,73654.0,-8.97,-30.67,-30.45,0,*68
1516770025.37,7383,4.13,73650.8,-8.97,-30.67,-30.61,0,*6F
1516770026.58,7384,4.13,73648.5,-8.97,-31.01,-30.83,0,*65
1516770027.79,7385,4.13,73646.8,-8.97,-31.05,-30.83,0,*60
1516770029.02,7386,4.13,73640.8,-8.97,-31.05,-30.89,0,*69
1516770030.25,7387,4.13,73642.0,-8.97,-31.05,-30.89,0,*68
1516770031.49,7388,4.13,73640.3,-8.97,-31.33,-31.23,0,*63
1516770032.75,7389,4.13,73644.0,-8.97,-31.39,-31.23,0,*68
1516770033.98,7390,4.13,73646.3,-8.97,-31.17,-30.89,0,*6D
1516770035.19,7391,4.13,73648.8,-8.97,-31.17,-31.01,0,*6D
1516770036.42,7392,4.13,73652.0,-8.99,-31.17,-31.01,0,*60
1516770037.62,7393,4.13,73652.0,-8.97,-31.17,-31.05,0,*6B
1516770038.83,7394,4.13,73646.8,-8.97,-31.17,-31.01,0,*68
1516770040.06,7395,4.13,73642.8,-8.97,-30.83,-30.61,0,*62
1516770041.27,7396,4.13,73644.5,-8.97,-31.01,-30.67,0,*6C
1516770042.51,7397,4.13,73644.3,-8.97,-31.23,-31.05,0,*68
1516770043.74,7398,4.13,73650.3,-8.97,-31.23,-31.05,0,*67
1516770044.97,7399,4.13,73650.8,-8.99,-31.33,-31.05,0,*69
1516770046.23,7400,4.13,73646.5,-8.99,-31.17,-30.89,0,*6D
1516770047.46,7401,4.13,73644.0,-8.99,-31.17,-31.01,0,*6D
1516770048.72,7402,4.13,73644.8,-8.97,-31.23,-31.23,0,*67
1516770049.97,7403,4.13,73644.5,-8.99,-31.39,-31.33,0,*62
1516770051.25,7404,4.13,73654.5,-8.99,-31.39,-31.23,0,*64
1516770052.49,7405,4.13,73652.8,-8.99,-31.33,-31.17,0,*68
1516770053.71,7406,4.13,73652.8,-8.97,-31.39,-31.33,0,*69
1516770054.94,7407,4.13,73654.3,-8.99,-31.33,-31.33,0,*6C
1516770056.18,7408,4.13,73644.0,-8.99,-30.83,-30.67,0,*69
1516770057.44,7409,4.13,73638.3,-8.99,-30.89,-30.67,0,*62
1516770058.66,7410,4.13,73640.8,-8.99,-31.05,-31.01,0,*6E
1516770059.95,7411,4.13,73642.5,-8.99,-31.23,-31.23,0,*6B
1516770061.21,7412,4.13,73644.8,-8.99,-31.33,-31.23,0,*69
1516770062.44,7413,4.13,73644.5,-8.99,-31.17,-31.05,0,*6A
1516770063.67,7414,4.13,73640.5,-8.99,-31.17,-31.05,0,*6D
1516770064.92,7415,4.13,73640.5,-8.99,-31.33,-31.23,0,*6E
1516770066.18,7416,4.13,73644.5,-8.99,-31.33,-31.23,0,*6D
1516770067.44,7417,4.13,73644.8,-8.99,-31.33,-31.23,0,*6C
1516770068.7,7418,4.13,73640.0,-9.03,-31.39,-31.29,0,*61
1516770069.98,7419,4.13,73648.3,-9.03,-31.39,-31.39,0,*61
1516770071.24,7420,4.13,73650.5,-9.03,-31.45,-31.39,0,*60
1516770072.47,7421,4.13,73648.5,-9.05,-31.39,-31.29,0,*6D
1516770073.75,7422,4.13,73646.0,-9.03,-31.39,-31.11,0,*63
1516770075.04,7423,4.13,73640.0,-9.03,-31.23,-31.11,0,*69
1516770076.28,7424,4.13,73644.3,-9.05,-31.29,-31.23,0,*63
1516770077.54,7425,4.13,73646.0,-9.03,-31.39,-31.29,0,*6F
1516770078.8,7426,4.13,73646.8,-9.05,-31.39,-31.39,0,*6B
1516770080.01,7427,4.13,73642.8,-9.05,-31.45,-31.29,0,*60
1516770081.24,7428,4.13,73644.8,-9.05,-31.39,-31.29,0,*64
1516770082.48,7429,4.13,73640.0,-9.05,-31.29,-31.23,0,*6E
1516770083.73,7430,4.13,73642.3,-9.07,-31.51,-31.33,0,*6A
1516770084.97,7431,4.13,73642.8,-9.05,-31.29,-31.39,0,*6C
1516770086.2,7432,4.13,73646.8,-9.05,-31.39,-31.29,0,*6F
1516770087.47,7433,4.13,73644.5,-9.05,-31.23,-31.11,0,*6E
1516770088.72,7434,4.13,73644.8,-9.07,-31.51,-31.33,0,*6E
1516770089.95,7435,4.13,73648.3,-9.07,-31.29,-31.17,0,*66
1516770091.18,7436,4.13,73648.3,-9.07,-31.17,-31.01,0,*6F
1516770092.43,7437,4.13,73644.3,-9.07,-31.11,-31.01,0,*68
1516770093.66,7438,4.13,73652.0,-9.07,-31.17,-31.01,0,*61
1516770094.89,7439,4.13,73646.3,-9.07,-31.29,-31.17,0,*6A
1516770096.13,7440,4.13,73648.5,-9.05,-31.23,-31.05,0,*6F
1516770097.37,7441,4.13,73650.5,-9.05,-31.23,-31.05,0,*6E
1516770098.61,7442,4.13,73646.8,-9.05,-31.05,-30.77,0,*6D
1516770099.9,7443,4.13,73644.3,-9.03,-31.11,-31.11,0,*6E
1516770101.12,7444,4.13,73650.8,-9.07,-31.33,-31.33,0,*6D
1516770102.36,7445,4.13,73650.5,-9.07,-31.45,-31.33,0,*6D
1516770103.61,7446,4.13,73652.0,-9.07,-31.51,-31.45,0,*6A
1516770104.84,7447,4.13,73652.3,-9.07,-31.33,-31.29,0,*65
1516770106.1,7448,4.13,73650.3,-9.07,-31.51,-31.45,0,*64
1516770107.34,7449,4.13,73652.3,-9.07,-31.45,-31.45,0,*60
1516770108.6,7450,4.13,73648.0,-9.07,-31.51,-31.45,0,*6D
1516770109.83,7451,4.13,73652.3,-9.07,-31.45,-31.33,0,*68
1516770111.05,7452,4.13,73648.8,-9.09,-31.45,-31.45,0,*64
1516770112.3,7453,4.13,73652.5,-9.07,-31.51,-31.33,0,*6F
1516770113.57,7454,4.13,73650.8,-9.09,-31.61,-31.51,0,*61
1516770114.79,7455,4.13,73650.0,-9.09,-31.67,-31.45,0,*63
1516770116.0,7456,4.13,73652.8,-9.09,-31.45,-31.33,0,*61
1516770117.24,7457,4.13,73650.3,-9.09,-31.51,-31.45,0,*64
1516770118.46,7458,4.13,73648.8,-9.09,-31.45,-31.33,0,*6F
1516770119.69,7459,4.13,73650.3,-9.09,-31.51,-31.33,0,*6B
1516770120.93,7460,4.13,73654.0,-9.09,-31.51,-31.33,0,*61
1516770122.14,7461,4.13,73650.3,-9.09,-31.33,-31.29,0,*6F
1516770123.37,7462,4.13,73652.8,-9.07,-31.33,-31.17,0,*6F
1516770124.6,7463,4.13,73652.0,-9.09,-31.51,-31.33,0,*62
1516770125.89,7464,4.13,73650.5,-9.11,-31.51,-31.39,0,*66
1516770127.18,7465,4.13,73654.8,-9.11,-31.57,-31.39,0,*61
1516770128.46,7466,4.13,73654.0,-9.11,-31.51,-31.39,0,*64
1516770129.68,7467,4.13,73650.8,-9.09,-31.33,-31.29,0,*69
1516770130.96,7468,4.13,73650.3,-9.11,-31.39,-31.23,0,*6F
1516770132.23,7469,4.13,73648.8,-9.11,-31.33,-31.23,0,*64
1516770133.49,7470,4.13,73650.8,-9.11,-31.33,-31.23,0,*6C
1516770134.71,7471,4.13,73652.3,-9.09,-31.45,-31.29,0,*6F
1516770135.97,7472,4.13,73652.5,-9.11,-31.39,-31.33,0,*65
1516770137.21,7473,4.13,73654.5,-9.11,-31.33,-31.05,0,*6B
1516770138.47,7474,4.13,73648.3,-9.11,-31.33,-31.23,0,*68
1516770139.75,7475,4.13,73648.0,-9.11,-31.39,-31.39,0,*68
1516770141.04,7476,4.13,73656.5,-9.11,-31.39,-31.23,0,*60
1516770142.28,7477,4.13,73654.3,-9.11,-31.33,-31.01,0,*6B
1516770143.54,7478,4.13,73656.5,-9.11,-31.39,-31.33,0,*6F
1516770144.8,7479,4.13,73654.8,-9.11,-31.33,-31.23,0,*65
1516770146.08,7480,4.13,73650.5,-9.11,-31.51,-31.39,0,*6C
1516770147.37,7481,4.13,73652.3,-9.11,-31.51,-31.23,0,*66
1516770148.66,7482,4.13,73648.0,-9.11,-31.39,-31.23,0,*6B
1516770149.92,7483,4.13,73652.5,-9.11,-31.51,-31.33,0,*65
1516770151.21,7484,4.13,73650.5,-9.11,-31.39,-31.23,0,*6D
1516770152.44,7485,4.13,73652.3,-9.11,-31.33,-31.33,0,*67
1516770153.7,7486,4.13,73658.5,-9.13,-31.39,-31.23,0,*6D
1516770154.94,7487,4.13,73654.0,-9.11,-31.33,-31.17,0,*63
1516770156.2,7488,4.13,73656.0,-9.13,-31.39,-31.23,0,*63
1516770157.47,7489,4.13,73652.3,-9.11,-31.33,-31.23,0,*6A
1516770158.68,7490,4.13,73652.8,-9.13,-31.33,-31.17,0,*67
1516770159.94,7491,4.13,73654.5,-9.11,-31.39,-31.17,0,*6E
1516770161.17,7492,4.13,73658.8,-9.11,-31.33,-31.05,0,*64
1516770162.41,7493,4.13,73650.3,-9.13,-31.17,-30.89,0,*64
1516770163.68,7494,4.13,73650.3,-9.11,-31.33,-31.23,0,*66
1516770164.94,7495,4.13,73654.8,-9.11,-31.51,-31.33,0,*62
1516770166.17,7496,4.13,73648.3,-9.13,-31.51,-31.33,0,*63
1516770167.43,7497,4.13,73648.5,-9.13,-31.51,-31.23,0,*63
1516770168.69,7498,4.13,73650.3,-9.11,-31.57,-31.33,0,*69
1516770169.95,7499,4.13,73652.5,-9.11,-31.67,-31.39,0,*61
1516770171.21,7500,4.13,73654.5,-9.13,-31.39,-31.23,0,*62
1516770172.44,7501,4.13,73650.8,-9.13,-31.51,-31.33,0,*6C
1516770173.7,7502,4.13,73652.0,-9.13,-31.57,-31.39,0,*63
1516770174.94,7503,4.13,73654.3,-9.13,-31.57,-31.33,0,*68
1516770176.2,7504,4.13,73652.0,-9.13,-31.57,-31.51,0,*6B
1516770177.44,7505,4.13,73652.0,-9.13,-31.57,-31.33,0,*6E
1516770178.7,7506,4.13,73654.0,-9.13,-31.73,-31.39,0,*61
1516770179.93,7507,4.13,73652.0,-9.13,-31.67,-31.39,0,*65
1516770181.19,7508,4.13,73652.5,-9.13,-31.51,-31.39,0,*6F
1516770182.42,7509,4.13,73654.8,-9.13,-31.67,-31.51,0,*65
1516770183.68,7510,4.13,73654.3,-9.13,-31.73,-31.39,0,*66
1516770184.92,7511,4.13,73652.5,-9.11,-31.67,-31.33,0,*6A
1516770186.2,7512,4.13,73654.8,-9.15,-31.57,-31.39,0,*64
1516770187.46,7513,4.13,73656.8,-9.13,-31.51,-31.23,0,*6E
1516770188.7,7514,4.13,73650.8,-9.13,-31.39,-31.17,0,*60
1516770189.99,7515,4.13,73652.0,-9.17,-31.61,-31.39,0,*64
1516770191.25,7516,4.13,73658.5,-9.15,-31.61,-31.45,0,*6E
1516770192.54,7517,4.13,73652.0,-9.17,-31.73,-31.39,0,*65
1516770193.83,7518,4.13,73656.0,-9.15,-31.73,-31.39,0,*68
1516770195.11,7519,4.13,73654.0,-9.17,-31.61,-31.57,0,*60
1516770196.37,7520,4.13,73654.8,-9.17,-31.73,-31.29,0,*60
1516770197.63,7521,4.13,73656.8,-9.17,-31.79,-31.57,0,*62
1516770198.9,7522,4.13,73658.3,-9.17,-31.73,-31.45,0,*68
1516770200.19,7523,4.13,73656.0,-9.17,-31.73,-31.39,0,*62
1516770201.45,7524,4.13,73656.0,-9.17,-31.57,-31.29,0,*62
1516770202.71,7525,4.13,73652.5,-9.15,-31.57,-31.29,0,*61
1516770203.98,7526,4.13,73648.5,-9.17,-31.61,-31.45,0,*6F
1516770205.22,7527,4.13,73654.8,-9.17,-31.79,-31.45,0,*67
1516770206.51,7528,4.13,73654.0,-9.17,-31.73,-31.57,0,*61
1516770207.77,7529,4.13,73652.5,-9.17,-31.61,-31.45,0,*60
1516770209.01,7530,4.13,73656.0,-9.17,-31.79,-31.45,0,*61
1516770210.28,7531,4.13,73658.0,-9.17,-31.73,-31.45,0,*6A
1516770211.55,7532,4.13,73652.5,-9.17,-31.73,-31.45,0,*69
1516770212.79,7533,4.13,73652.0,-9.19,-31.61,-31.29,0,*6F
1516770214.05,7534,4.13,73654.5,-9.19,-31.51,-31.11,0,*60
1516770215.27,7535,4.13,73654.8,-9.19,-31.79,-31.45,0,*6A
1516770216.49,7536,4.13,73652.8,-9.19,-31.79,-31.45,0,*69
1516770217.72,7537,4.13,73654.8,-9.19,-31.61,-31.33,0,*60
1516770218.96,7538,4.13,73654.0,-9.19,-31.79,-31.51,0,*62
1516770220.2,7539,4.13,73652.5,-9.19,-31.17,-30.89,0,*6F
1516770221.42,7540,4.13,73652.5,-9.19,-31.45,-31.17,0,*60
1516770222.65,7541,4.13,73656.8,-9.21,-31.67,-31.33,0,*6C
1516770223.88,7542,4.13,73654.8,-9.21,-31.67,-31.29,0,*64
1516770225.12,7543,4.13,73654.8,-9.21,-31.79,-31.45,0,*60
1516770226.33,7544,4.13,73656.0,-9.19,-31.67,-31.33,0,*62
1516770227.57,7545,4.13,73654.8,-9.19,-31.61,-31.33,0,*65
1516770228.8,7546,4.13,73656.5,-9.21,-31.67,-31.29,0,*60
1516770230.04,7547,4.13,73656.3,-9.21,-31.67,-31.45,0,*6B
1516770231.27,7548,4.13,73662.5,-9.21,-31.67,-31.45,0,*64
1516770232.51,7549,4.13,73658.8,-9.19,-31.61,-31.29,0,*62
1516770233.78,7550,4.13,73656.0,-9.21,-31.61,-31.29,0,*61
1516770235.01,7551,4.13,73648.0,-9.21,-31.67,-31.29,0,*66
1516770236.25,7552,4.13,73650.8,-9.19,-31.61,-31.33,0,*63
1516770237.49,7553,4.13,73648.8,-9.21,-31.45,-31.17,0,*69
1516770238.73,7554,4.13,73650.0,-9.21,-31.45,-31.17,0,*6E
1516770240.01,7555,4.13,73658.0,-9.21,-31.51,-31.11,0,*6C
1516770241.27,7556,4.13,73654.8,-9.19,-31.51,-31.11,0,*64
1516770242.54,7557,4.13,73652.0,-9.21,-31.61,-31.17,0,*6B
1516770243.77,7558,4.13,73652.0,-9.21,-31.67,-31.33,0,*64
1516770245.01,7559,4.13,73654.3,-9.19,-31.61,-31.29,0,*63
1516770246.24,7560,4.13,73654.3,-9.21,-31.67,-31.29,0,*64
1516770247.48,7561,4.13,73656.0,-9.21,-31.79,-31.33,0,*61
1516770248.73,7562,4.13,73656.5,-9.23,-31.85,-31.51,0,*67
1516770249.97,7563,4.13,73658.0,-9.21,-31.79,-31.29,0,*68
1516770251.21,7564,4.13,73654.5,-9.21,-31.79,-31.45,0,*65
1516770252.45,7565,4.13,73656.3,-9.21,-31.79,-31.33,0,*65
1516770253.68,7566,4.13,73652.5,-9.27,-31.73,-31.33,0,*6A
1516770254.94,7567,4.13,73656.0,-9.23,-31.73,-31.51,0,*6B
1516770256.2,7568,4.13,73656.0,-9.23,-31.85,-31.39,0,*63
1516770257.45,7569,4.13,73658.5,-9.23,-31.91,-31.51,0,*69
1516770258.71,7570,4.13,73658.3,-9.23,-31.91,-31.51,0,*61
1516770259.94,7571,4.13,73654.0,-9.23,-31.67,-31.23,0,*6C
1516770261.2,7572,4.13,73656.8,-9.23,-31.85,-31.39,0,*68
1516770262.4,7573,4.13,73650.5,-9.23,-31.67,-31.33,0,*6F
1516770263.66,7574,4.13,73658.0,-9.27,-31.73,-31.39,0,*63
1516770264.93,7575,4.13,73654.5,-9.27,-31.85,-31.39,0,*6B
1516770266.16,7576,4.13,73654.0,-9.23,-31.73,-31.33,0,*6F
1516770267.39,7577,4.13,73656.3,-9.23,-31.73,-31.33,0,*6E
1516770268.65,7578,4.13,73658.3,-9.27,-31.85,-31.51,0,*68
1516770269.92,7579,4.13,73658.8,-9.27,-31.85,-31.39,0,*67
1516770271.18,7580,4.13,73654.3,-9.23,-31.85,-31.51,0,*6B
1516770272.44,7581,4.13,73658.0,-9.27,-31.85,-31.39,0,*60
1516770273.7,7582,4.13,73652.8,-9.27,-31.91,-31.51,0,*68
1516770274.96,7583,4.13,73656.5,-9.27,-31.85,-31.57,0,*6A
1516770276.17,7584,4.13,73656.3,-9.27,-31.67,-31.33,0,*63
1516770277.38,7585,4.13,73660.3,-9.27,-31.67,-31.33,0,*62
1516770278.61,7586,4.13,73658.0,-9.27,-31.73,-31.33,0,*64
1516770279.88,7587,4.13,73654.0,-9.27,-31.73,-31.39,0,*6F
1516770281.14,7588,4.13,73654.5,-9.27,-31.85,-31.39,0,*69
1516770282.38,7589,4.13,73656.0,-9.27,-31.67,-31.23,0,*6F
1516770283.61,7590,4.13,73656.8,-9.27,-31.67,-31.39,0,*6C
1516770284.85,7591,4.13,73664.0,-9.27,-31.57,-31.05,0,*61
1516770286.12,7592,4.13,73660.0,-9.27,-31.73,-31.23,0,*60
1516770287.39,7593,4.13,73662.5,-9.29,-31.61,-31.29,0,*66
1516770288.66,7594,4.13,73656.0,-9.29,-31.45,-30.89,0,*6C
1516770289.95,7595,4.13,73648.0,-9.29,-31.39,-30.89,0,*66
1516770291.19,7596,4.13,73654.3,-9.29,-31.45,-31.01,0,*6F
1516770292.41,7597,4.13,73656.8,-9.27,-31.67,-31.17,0,*67
1516770293.64,7598,4.13,73656.8,-9.27,-31.73,-31.33,0,*6B
1516770294.91,7599,4.13,73656.8,-9.29,-31.73,-31.29,0,*6F
1516770296.18,7600,4.13,73654.5,-9.31,-31.73,-31.23,0,*6F
1516770297.45,7601,4.13,73656.3,-9.29,-31.73,-31.29,0,*6D
1516770298.71,7602,4.13,73660.0,-9.29,-31.79,-31.39,0,*65
1516770300.0,7603,4.13,73656.5,-9.29,-31.61,-31.11,0,*67
1516770301.24,7604,4.13,73658.8,-9.27,-31.73,-31.33,0,*6D
1516770302.51,7605,4.13,73656.5,-9.29,-31.73,-31.29,0,*69
1516770303.74,7606,4.13,73658.8,-9.27,-31.57,-31.05,0,*6C
1516770304.98,7607,4.13,73662.8,-9.27,-31.51,-31.05,0,*6B
1516770306.27,7608,4.13,73658.0,-9.29,-31.57,-31.11,0,*69
1516770307.53,7609,4.13,73658.3,-9.29,-31.57,-31.05,0,*6D
1516770308.78,7610,4.13,73658.0,-9.29,-31.79,-31.29,0,*67
1516770310.07,7611,4.13,73658.5,-9.29,-31.95,-31.39,0,*65
1516770311.3,7612,4.13,73658.0,-9.31,-31.57,-31.01,0,*6A
1516770312.57,7613,4.13,73656.3,-9.31,-31.73,-31.39,0,*66
1516770313.86,7614,4.13,73658.0,-9.29,-31.61,-31.11,0,*61
1516770315.15,7615,4.13,73656.3,-9.29,-31.73,-31.39,0,*69
1516770316.39,7616,4.13,73656.3,-9.31,-31.79,-31.39,0,*69
1516770317.63,7617,4.13,73660.0,-9.27,-31.61,-31.17,0,*6A
1516770318.92,7618,4.13,73660.0,-9.29,-31.91,-31.39,0,*68
1516770320.18,7619,4.13,73664.0,-9.29,-31.79,-31.39,0,*6F
1516770321.45,7620,4.13,73666.0,-9.31,-31.57,-31.11,0,*6A
1516770322.71,7621,4.13,73670.8,-9.31,-31.57,-31.11,0,*6B
1516770323.95,7622,4.13,73664.5,-9.27,-31.51,-31.01,0,*68
1516770325.24,7623,4.13,73666.5,-9.29,-31.73,-31.23,0,*67
1516770326.48,7624,4.13,73654.3,-9.29,-31.45,-31.05,0,*61
1516770327.75,7625,4.13,73654.3,-9.31,-31.61,-31.23,0,*6B
1516770328.99,7626,4.13,73656.3,-9.31,-31.61,-31.29,0,*62
1516770330.26,7627,4.13,73654.8,-9.31,-31.73,-31.39,0,*61
1516770331.55,7628,4.13,73656.0,-9.29,-31.73,-31.23,0,*6C
1516770332.77,7629,4.13,73652.5,-9.31,-31.45,-30.83,0,*6A
1516770334.02,7630,4.13,73652.0,-9.31,-31.23,-30.83,0,*62
1516770335.29,7631,4.13,73652.3,-9.31,-31.11,-30.73,0,*6D
1516770336.54,7632,4.13,73652.8,-9.29,-31.29,-30.83,0,*63
1516770337.81,7633,4.13,73654.0,-9.31,-31.61,-31.11,0,*6D
1516770339.07,7634,4.13,73654.5,-9.31,-31.57,-31.23,0,*6E
1516770340.37,7635,4.13,73656.0,-9.29,-31.61,-31.23,0,*63
1516770341.63,7636,4.13,73650.3,-9.31,-31.61,-31.11,0,*68
1516770342.87,7637,4.13,73650.0,-9.27,-31.67,-31.23,0,*69
1516770344.14,7638,4.13,73648.5,-9.31,-31.57,-31.23,0,*62
1516770345.43,7639,4.13,73644.5,-9.29,-31.57,-31.11,0,*6B
1516770346.7,7640,4.13,73650.3,-9.31,-31.57,-31.23,0,*6D
1516770347.97,7641,4.13,73654.3,-9.29,-31.73,-31.29,0,*69
1516770349.21,7642,4.13,73652.8,-9.29,-31.79,-31.29,0,*60
1516770350.41,7643,4.13,73658.5,-9.27,-31.67,-31.05,0,*6E
1516770351.66,7644,4.13,73660.0,-9.27,-31.73,-31.17,0,*6F
1516770352.95,7645,4.13,73660.3,-9.29,-31.73,-31.11,0,*66
1516770354.24,7646,4.13,73662.3,-9.29,-31.73,-31.23,0,*64
1516770355.53,7647,4.13,73660.0,-9.29,-31.73,-31.39,0,*6E
1516770356.77,7648,4.13,73656.3,-9.31,-31.91,-31.29,0,*65
1516770358.01,7649,4.13,73652.8,-9.31,-31.91,-31.45,0,*6E
1516770359.28,7650,4.13,73658.0,-9.29,-31.79,-31.39,0,*62
1516770360.54,7651,4.13,73660.0,-9.31,-31.73,-31.39,0,*60
1516770361.79,7652,4.13,73654.8,-9.31,-31.45,-30.89,0,*6C
1516770363.01,7653,4.13,73648.8,-9.31,-31.45,-30.83,0,*67
1516770364.23,7654,4.13,73654.5,-9.31,-31.45,-30.83,0,*60
1516770365.5,7655,4.13,73652.5,-9.31,-31.61,-31.23,0,*6C
1516770366.74,7656,4.13,73650.3,-9.31,-31.57,-31.05,0,*6E
1516770368.01,7657,4.13,73648.3,-9.31,-31.61,-31.11,0,*6F
1516770369.24,7658,4.13,73654.8,-9.31,-31.57,-31.05,0,*60
1516770370.51,7659,4.13,73656.8,-9.29,-31.57,-31.01,0,*6C
1516770371.78,7660,4.13,73656.3,-9.31,-31.73,-31.23,0,*69
1516770373.02,7661,4.13,73654.3,-9.31,-31.45,-30.89,0,*6C
1516770374.32,7662,4.13,73652.0,-9.29,-31.61,-31.11,0,*60
1516770375.58,7663,4.13,73656.8,-9.31,-31.73,-31.11,0,*6B
1516770376.81,7664,4.13,73658.3,-9.33,-31.67,-31.29,0,*60
1516770378.05,7665,4.13,73660.0,-9.31,-31.57,-31.05,0,*6E
1516770379.32,7666,4.13,73656.8,-9.29,-31.57,-31.01,0,*60
1516770380.54,7667,4.13,73658.3,-9.31,-31.45,-30.83,0,*60
1516770381.75,7668,4.13,73658.3,-9.31,-31.45,-31.05,0,*60
1516770382.99,7669,4.13,73654.3,-9.31,-31.61,-31.05,0,*67
1516770384.23,7670,4.13,73658.8,-9.31,-31.79,-31.23,0,*62
1516770385.48,7671,4.13,73656.3,-9.31,-31.45,-30.89,0,*6D
1516770386.69,7672,4.13,73654.0,-9.31,-31.45,-31.01,0,*6F
1516770387.94,7673,4.13,73658.0,-9.31,-31.29,-30.73,0,*60
1516770389.18,7674,4.13,73654.0,-9.31,-31.39,-30.83,0,*69
1516770390.44,7675,4.13,73654.3,-9.29,-31.61,-31.05,0,*63
1516770391.71,7676,4.13,73656.8,-9.29,-31.57,-31.01,0,*61
1516770392.95,7677,4.13,73656.5,-9.31,-31.45,-30.89,0,*6B
1516770394.23,7678,4.13,73656.0,-9.31,-31.11,-30.73,0,*60
1516770395.47,7679,4.13,73654.8,-9.31,-31.45,-30.89,0,*65
1516770396.72,7680,4.13,73656.0,-9.31,-31.45,-30.89,0,*63
1516770397.97,7681,4.13,73656.0,-9.31,-31.45,-30.89,0,*62
1516770399.21,7682,4.13,73658.3,-9.31,-31.45,-30.89,0,*61
1516770400.45,7683,4.13,73656.3,-9.31,-31.61,-31.05,0,*63
1516770401.74,7684,4.13,73656.8,-9.29,-31.57,-31.11,0,*6D
1516770402.99,7685,4.13,73654.5,-9.29,-31.29,-30.83,0,*6F
1516770404.25,7686,4.13,73652.8,-9.31,-31.39,-30.89,0,*6E
1516770405.49,7687,4.13,73658.8,-9.29,-31.45,-31.01,0,*6C
1516770406.71,7688,4.13,73652.5,-9.31,-31.45,-31.01,0,*6A
1516770407.96,7689,4.13,73658.3,-9.31,-31.45,-30.89,0,*6A
1516770409.2,7690,4.13,73656.3,-9.29,-31.29,-30.83,0,*6B
1516770410.44,7691,4.13,73654.8,-9.29,-31.45,-31.01,0,*6B
1516770411.66,7692,4.13,73652.8,-9.31,-31.45,-31.05,0,*65
1516770412.89,7693,4.13,73656.0,-9.31,-31.39,-31.01,0,*6B
1516770414.1,7694,4.13,73656.5,-9.31,-31.45,-31.01,0,*67
1516770415.32,7695,4.13,73656.0,-9.31,-31.45,-31.05,0,*62
1516770416.56,7696,4.13,73654.8,-9.31,-31.57,-31.05,0,*62
1516770417.82,7697,4.13,73658.0,-9.31,-31.61,-31.11,0,*63
1516770419.06,7698,4.13,73656.3,-9.31,-31.73,-31.29,0,*64
1516770420.3,7699,4.13,73658.8,-9.31,-31.57,-31.05,0,*6D
1516770421.57,7700,4.13,73656.5,-9.31,-31.61,-31.23,0,*6D
1516770422.8,7701,4.13,73662.3,-9.31,-31.57,-31.05,0,*6D
1516770424.08,7702,4.13,73658.8,-9.31,-31.57,-30.89,0,*6B
1516770425.35,7703,4.13,73658.0,-9.33,-31.29,-30.77,0,*60
1516770426.63,7704,4.13,73656.0,-9.33,-31.51,-31.11,0,*69
1516770427.92,7705,4.13,73658.5,-9.33,-31.51,-31.11,0,*68
1516770429.15,7706,4.13,73658.5,-9.33,-31.67,-31.05,0,*6B
1516770430.44,7707,4.13,73656.3,-9.33,-31.61,-31.11,0,*69
1516770431.73,7708,4.13,73658.0,-9.29,-31.57,-31.11,0,*68
1516770432.99,7709,4.13,73658.5,-9.33,-31.61,-31.05,0,*62
1516770434.25,7710,4.13,73656.5,-9.33,-31.45,-30.95,0,*64
1516770435.52,7711,4.13,73658.0,-9.33,-31.45,-30.95,0,*65
1516770436.8,7712,4.13,73658.0,-9.33,-31.51,-31.11,0,*6E
1516770438.06,7713,4.13,73660.0,-9.33,-31.45,-30.95,0,*67
1516770439.33,7714,4.13,73660.0,-9.33,-31.33,-30.77,0,*6D
1516770440.6,7715,4.13,73656.3,-9.31,-31.23,-30.73,0,*6B
1516770441.85,7716,4.13,73656.5,-9.31,-31.45,-30.89,0,*6D
1516770443.11,7717,4.13,73656.3,-9.33,-31.45,-30.95,0,*63
1516770444.4,7718,4.13,73658.0,-9.33,-31.51,-31.11,0,*64
1516770445.67,7719,4.13,73654.5,-9.33,-31.29,-30.77,0,*6B
1516770446.97,7720,4.13,73656.8,-9.33,-31.11,-30.73,0,*6E
1516770448.26,7721,4.13,73656.5,-9.29,-31.11,-30.55,0,*60
1516770449.5,7722,4.13,73654.8,-9.31,-31.29,-30.73,0,*65
1516770450.74,7723,4.13,73656.5,-9.31,-31.05,-30.73,0,*6A
1516770451.98,7724,4.13,73648.3,-9.31,-30.67,-30.17,0,*6A
1516770453.19,7725,4.13,73648.5,-9.31,-30.83,-30.23,0,*66
1516770454.45,7726,4.13,73650.3,-9.29,-31.05,-30.51,0,*66
1516770455.68,7727,4.13,73650.5,-9.31,-31.05,-30.55,0,*6A
1516770456.98,7728,4.13,73654.8,-9.29,-31.23,-30.73,0,*6C
1516770458.22,7729,4.13,73652.5,-9.31,-31.29,-30.73,0,*6E
1516770459.52,7730,4.13,73654.3,-9.29,-31.23,-30.73,0,*65
1516770460.79,7731,4.13,73656.3,-9.31,-31.23,-30.73,0,*6D
1516770462.05,7732,4.13,73656.0,-9.29,-31.05,-30.55,0,*67
1516770463.31,7733,4.13,73656.3,-9.29,-30.89,-30.33,0,*63
1516770464.52,7734,4.13,73656.5,-9.27,-30.45,-29.95,0,*6E
1516770465.75,7735,4.13,73658.5,-9.27,-30.61,-30.11,0,*6D
1516770466.98,7736,4.13,73660.5,-9.27,-30.45,-30.01,0,*69
1516770468.17,7737,4.13,73650.3,-9.23,-30.45,-29.95,0,*69
1516770469.4,7738,4.13,73646.8,-9.23,-30.77,-30.27,0,*66
1516770470.63,7739,4.13,73648.0,-9.23,-31.17,-30.51,0,*61
1516770471.87,7740,4.13,73652.0,-9.23,-31.39,-30.83,0,*6C
1516770473.13,7741,4.13,73654.5,-9.27,-31.39,-30.95,0,*6E
1516770474.42,7742,4.13,73654.0,-9.21,-31.51,-30.89,0,*68
1516770475.67,7743,4.13,73648.8,-9.23,-31.39,-30.95,0,*68
1516770476.92,7744,4.13,73652.0,-9.23,-31.39,-30.95,0,*6F
1516770478.17,7745,4.13,73652.5,-9.23,-31.51,-30.95,0,*60
1516770479.42,7746,4.13,73650.8,-9.23,-31.51,-30.95,0,*63
1516770480.64,7747,4.13,73656.0,-9.23,-31.51,-31.01,0,*6E
1516770481.92,7748,4.13,73656.3,-9.27,-31.23,-30.77,0,*60
1516770483.15,7749,4.13,73662.5,-9.23,-31.05,-30.51,0,*65
1516770484.39,7750,4.13,73656.0,-9.23,-31.23,-30.67,0,*6C
1516770485.6,7751,4.13,73660.8,-9.23,-31.33,-30.83,0,*66
1516770486.85,7752,4.13,73656.5,-9.23,-31.39,-30.95,0,*68
1516770488.06,7753,4.13,73656.5,-9.23,-31.33,-30.83,0,*64
1516770489.29,7754,4.13,73652.8,-9.23,-31.39,-31.01,0,*62
1516770490.52,7755,4.13,73652.8,-9.23,-31.57,-31.05,0,*6F
1516770491.75,7756,4.13,73656.5,-9.23,-31.57,-31.05,0,*6C
1516770492.99,7757,4.13,73656.8,-9.27,-31.51,-30.83,0,*60
1516770494.28,7758,4.13,73658.0,-9.21,-31.51,-30.89,0,*63
1516770495.49,7759,4.13,73656.3,-9.23,-31.67,-31.17,0,*63
1516770496.7,7760,4.13,73654.3,-9.27,-31.67,-31.17,0,*6D
1516770497.93,7761,4.13,73660.3,-9.23,-31.57,-31.01,0,*6C
1516770499.14,7762,4.13,73660.5,-9.27,-31.67,-31.05,0,*6C
1516770500.37,7763,4.13,73656.8,-9.27,-31.51,-31.05,0,*68
1516770501.61,7764,4.13,73656.5,-9.27,-31.57,-31.05,0,*69
1516770502.85,7765,4.13,73658.8,-9.27,-31.57,-31.17,0,*6B
1516770504.09,7766,4.13,73660.5,-9.27,-31.57,-31.05,0,*6B
1516770505.35,7767,4.13,73654.0,-9.27,-31.51,-30.95,0,*64
1516770506.59,7768,4.13,73656.8,-9.27,-31.57,-31.01,0,*61
1516770507.82,7769,4.13,73658.3,-9.27,-31.57,-31.05,0,*64
1516770509.06,7770,4.13,73658.0,-9.27,-31.51,-31.05,0,*6A
1516770510.32,7771,4.13,73662.8,-9.29,-31.57,-31.01,0,*67
1516770511.59,7772,4.13,73658.3,-9.29,-31.61,-31.01,0,*61
1516770512.85,7773,4.13,73654.3,-9.29,-31.57,-31.01,0,*65
1516770514.11,7774,4.13,73656.3,-9.29,-31.57,-31.05,0,*66
1516770515.35,7775,4.13,73656.3,-9.31,-31.57,-31.01,0,*6A
1516770516.62,7776,4.13,73656.5,-9.29,-31.61,-31.05,0,*61